Find Starlink 11294

NORAD ID: 61054 Int'l Des: 2024-164 Owner: SPXS Country: US Constellation: starlink operational
LEOCIRCULAR

Live Position

Loading 3D Globe...

About Starlink 11294

Description loading...

Upcoming Passes

Passes for default location (London). Set your location on the main map for personalized predictions.

Altitude History

Loading altitude history...

Two-Line Element Set

1 61054U 24164E 26127.08662501 -.00002525 00000-0 -15975-4 0 9996
2 61054 53.1589 23.1840 0001195 67.3570 292.7574 15.69732092 94598
Epoch: May 7, 2026 • Age: 13 hours

Current Status

Altitude 360.7 km
Velocity 7.69 km/s
Sub-Earth Point 0.96°N, 108.41°E
Launch Date Sep 13, 2024
Age 1.6 years
Type internet

Technical Details

Classification Payload
Mass 960.00 kg
Dry Mass 910.00 kg
Total Mass 960.00 kg
Length 0.30 m
Diameter 4.10 m
Span 29.00 m
Shape Box + pan
Manufacturer SPXS
Bus Type Starlink V2MD
Phase Status In Orbit
Owner/State SPXS/US

Most Searched